Location: Andrest
(43.3200°N, 0.0641°E)
Time: 09:46:08
(UTC+00:00)

Sich 1 - Pass Details

Date: 01 December 2020
Orbit: 593 x 626 km, 82.5° (Epoch: 24 January)

Event Time Altitude Azimuth Distance (km) Brightness Sun altitude
Rises 17:02:19 0° 350° (N) 2,895 6.4 -6.9°
Reaches altitude 10° 17:04:34 10° 348° (NNW) 1,980 5.5 -7.3°
Maximum altitude 17:08:56 75° 264° (W) 635 3.3 -8.0°
Drops below altitude 10° 17:13:14 10° 179° (S) 1,944 5.9 -8.7°
Sets 17:15:25 0° 178° (S) 2,837 6.7 -9.1°
